Location: Ammerl�gen
(47.2167°N, 9.6000°E)
Time: 12:15:22
(UTC+00:00)

DMSP 5D-2 F13 DEB - Pass Details

Date: 23 October 2021
Orbit: 758 x 780 km, 98.7° (Epoch: 25 November)

Event Time Altitude Azimuth Distance (km) Brightness Sun altitude
Exits shadow 18:23:23 34° 44° (NE) 1,249 ? -21.7°
Drops below altitude 10° 18:27:08 10° 1° (N) 2,305 ? -22.3°
Sets 18:29:35 0° 353° (N) 3,233 ? -22.7°
